Regional Weather Roundup
Issued by NWS

Home | Current Version | Previous Version | Text Only | Print | Product List | Glossary On
Versions: 1 2 3 4 5 6 7 8 9 10 11 12 13 14 15 16 17 18 19 20 21 22 23 24 25 26 27 28 29 30 31 32 33 34 35 36 37 38 39 40 41 42 43 44 45
000
ASUS45 KBOU 201710
RWRCO

WEATHER ROUNDUP FOR COLORADO
NATIONAL WEATHER SERVICE PUEBLO CO
1100 AM MDT FRI APR 20 2018

NOTE: "FAIR" INDICATES FEW OR NO CLOUDS BELOW 12000 FEET WITH NO
SIGNIFICANT WEATHER AND/OR OBSTRUCTIONS TO VISIBILITY.

COZ001>005-013-030-031-201800-
...NORTHWEST COLORADO...

CITY           SKY/WX    TMP DP  RH WIND       PRES   REMARKS
CRAIG          LGT RAIN  37  35  92 W10       29.93S
HAYDEN         LGT RAIN  37  35  92 W7        29.93S
MEEKER         CLOUDY    42  35  76 N7        29.90F
RABBIT EARS PA NOT AVBL
STEAMBOAT SPGS CLOUDY    36  35  95 CALM      29.92S
WALDEN         FAIR      50  27  40 N18       29.87F
$$

COZ006>008-011-201800-
...WEST CENTRAL VALLEYS...

CITY           SKY/WX    TMP DP  RH WIND       PRES   REMARKS
GRAND JUNCTION CLOUDY    52  26  36 SE14      29.88R
MONTROSE       CLOUDY    38  33  82 NE10      29.94R
EAGLE          CLOUDY    41  36  82 W5        29.91F
RIFLE          CLOUDY    49  34  56 S5        29.87S
DELTA          NOT AVBL
NUCLA          FAIR      50   9  18 S12       29.92S
$$

COZ017>023-064>068-201800-
...SOUTHWEST COLORADO...

CITY           SKY/WX    TMP DP  RH WIND       PRES   REMARKS
DURANGO        CLOUDY    42  10  27 S9G17     29.92S
CORTEZ         CLOUDY    48  21  34 SW24      29.93R
PAGOSA SPRINGS CLOUDY    33  29  86 S7        29.94S WCI  27
TELLURIDE      LGT SNOW  27  22  82 NE3       29.96R
WOLF CREEK PAS LGT SNOW  18  18 100 MISG      29.97S
$$

COZ009-010-012-014-032>034-037-058>063-201800-
...CENTRAL COLORADO...

CITY           SKY/WX    TMP DP  RH WIND       PRES   REMARKS
ASPEN          FLURRIES  35  32  88 N3        29.87F
BUENA VISTA    LGT SNOW  33  32  94 SE8       29.92F WCI  27
COPPER MTN     NOT AVBL
BERTHOUD PASS  CLOUDY    25  14  63 SE22G32   30.00R WCI  10
COTTONWOOD PAS SNOW      34  34 100 E3        29.94S VSB<1/4
GUNNISON       PTSUNNY   40  31  70 CALM      29.86F
KREMMLING      CLOUDY    54  37  54 W17G23    29.86F
LEADVILLE      CLOUDY    29  29 100 SW8       29.90S WCI  21
MONARCH PASS   CLOUDY    23  21  93 E9G21     30.05S WCI  13
SALIDA         CLOUDY    35  32  90 E9        30.00S WCI  28
SUNLIGHT       CLOUDY    27  25  93 CALM      29.97S FOG
WILKERSON PASS LGT SNOW  28  25  86 S6        30.00F WCI  22
$$

COZ069>075-201800-
...SAN LUIS VALLEY/SANGRE DE CRISTO MOUNTAINS...

CITY           SKY/WX    TMP DP  RH WIND       PRES   REMARKS
ALAMOSA        LGT SNOW  32  32 100 SE12      29.94S FOG     WCI  23
DEL NORTE      FLURRIES  36  30  78 SE16G22   29.92R
LA VETA PASS   LGT SNOW  34  32  93 SW10G16   30.05F WCI  26
SAGUACHE       NOT AVBL
$$

COZ035-036-038>040-201800-
...NORTHERN COLORADO FRONT RANGE...

CITY           SKY/WX    TMP DP  RH WIND       PRES   REMARKS
DENVER INTL AP PTSUNNY   56  28  34 SE23G35   29.90F
DMNS CITY PARK NOT AVBL
AURORA         PTSUNNY   54  28  36 S22G28    29.91S
FRONT RANGE AP PTSUNNY   55  30  38 SE23G31   29.93F
ERIE MUNI ARPT FAIR      48  25  41 N7        29.97F
BOULDER MUN AP CLOUDY    45  27  49 N8        29.93S
CENTENNIAL     PTSUNNY   55  29  36 S20G29    29.90F
BROOMFIELD     PTSUNNY   46  27  46 N6        29.93S
LOVELAND       PTSUNNY   54  27  35 SE5G17    29.94S
LONGMONT       MIX PCPN  49  28  45 N6          N/A
$$

COZ041-046-047-076>085-087-088-201800-
...PIKES PEAK/PALMER DIVIDE AND SOUTHERN FOOTHILLS...

CITY           SKY/WX    TMP DP  RH WIND       PRES   REMARKS
COLO. SPRINGS  PTSUNNY   45  28  51 SE22      29.96F
A. F. ACADEMY  CLOUDY    42  26  53 SE16      29.96F
SCHRIEVER AFB  NOT AVBL
CHEYENNE MTN   NOT AVBL
ELLICOTT         N/A    N/A N/A N/A SE25G35   29.95S
FALCON         CLOUDY    42  26  55 SE20G30   29.98F
FORT CARSON    CLOUDY    49  28  45 E13G21    29.93F
LIMON          PTSUNNY   42  35  76 SE33G47   29.99S
MONUMENT HILL  MOSUNNY   41  28  60 S26G35    29.95F
CANON CITY     CLOUDY    52  30  43 NE18G26   29.89F
WALSENBURG     FAIR      57  30  35 S22G35    29.86S
TRINIDAD       CLOUDY    50  31  48 S12G26    29.94F
$$

COZ042>045-048>051-090-091-201800-
...NORTHEAST COLORADO...

CITY           SKY/WX    TMP DP  RH WIND       PRES   REMARKS
GREELEY ARPT   MOSUNNY   55  29  36 E23G29    29.94F
AKRON          LGT RAIN  37  34  89 SE28G41   30.02R FOG
BURLINGTON     LGT SNOW  37  32  82 S16       30.12R
WRAY           RAIN      41  34  75 SE12      30.12R
YUMA           NOT AVBL
STERLING       NOT AVBL
HOLYOKE        LGT RAIN  43  34  70 SE15      30.13S
FORT MORGAN    CLOUDY    44  31  62 SE17G25   30.03R
$$

COZ086-089-092>099-201800-
...SOUTHEAST COLORADO...

CITY           SKY/WX    TMP DP  RH WIND       PRES   REMARKS
PUEBLO         PTSUNNY   59  32  36 SE24G36   29.86F
LA JUNTA       CLOUDY    50  33  52 SE24      29.98F
LAMAR          CLOUDY    46  31  55 SE18G26   30.05F
SPRINGFIELD      N/A     42  30  62 SE29G41   30.04F
$$





USA.gov is the U.S. government's official web portal to all federal, state and local government web resources and services.